Location: Poughquag
(41.6090°N, 73.6820°W)
Time: 09:44:09
(UTC-05:00)

SR - Pass Details

Date: 14 December 2023
Orbit: 574 x 868 km, 66.7° (Epoch: 25 February)

Event Time Altitude Azimuth Distance (km) Brightness Sun altitude
Rises 07:21:15 0° 156° (SSE) 3,254 ? 0.4°
Reaches altitude 10° 07:24:46 10° 132° (SE) 2,390 ? 0.9°
Maximum altitude 07:27:33 14° 102° (ESE) 2,153 ? 1.4°
Drops below altitude 10° 07:30:24 10° 72° (ENE) 2,469 ? 1.8°
Sets 07:34:07 0° 49° (NE) 3,442 ? 2.4°
